Regional Weather Roundup
Issued by NWS Huntsville, AL

Current Version | Previous Version | Text Only | Print | Product List | Glossary On
Versions: 1 2 3 4 5 6 7 8 9 10 11 12 13 14 15 16 17 18 19 20 21 22 23 24 25 26 27 28
000
ASUS44 KHUN 192010
RWRHUN

WEATHER ROUNDUP FOR THE TENNESSEE VALLEY
NATIONAL WEATHER SERVICE HUNTSVILLE AL
300 PM CDT THU APR 19 2018

ALZ001>004-192100-
NORTHWEST ALABAMA

CITY           SKY/WX    TMP DP  RH WIND       PRES   REMARKS
SHOALS AIRPORT FAIR      58  30  34 N10       30.27F
$$

ALZ005>007-016-192100-
NORTH CENTRAL ALABAMA

CITY           SKY/WX    TMP DP  RH WIND       PRES   REMARKS
DECATUR AP     FAIR      55  31  39 N15       30.26S
HUNTSVILLE AP  FAIR      56  33  42 N15       30.24F
MERIDIANVILLE  SUNNY     54  32  43 N9        30.25S
REDSTONE ARSN  FAIR      55  33  44 N9G20     30.23F
VINEMONT AP    FAIR      55  32  41 NW12G18   30.24F
$$

ALZ008>010-192100-
NORTHEAST ALABAMA

CITY           SKY/WX    TMP DP  RH WIND       PRES   REMARKS
ALBERTVILLE    FAIR      54  37  54 NW17      30.20F
FORT PAYNE     FAIR      54  30  40 N9G17     30.20S
SCOTTSBORO AP  FAIR      55  30  38 N9G20     30.23F
$$

TNZ076-096-097-192100-
SOUTHEASTERN MIDDLE TENNESSEE

CITY           SKY/WX    TMP DP  RH WIND       PRES   REMARKS
TULLAHOMA      MOSUNNY   50  30  46 NW15G22   30.25S
WINCHESTER     MOSUNNY   50  28  43 N16       30.24F
$$

...SURROUNDING SITES...

CITY           SKY/WX    TMP DP  RH WIND       PRES   REMARKS
ATLANTA        FAIR      66  42  41 N14G22    30.10S
ANNISTON       FAIR      62  39  42 N8G22     30.17S
BIRMINGHAM     FAIR      63  38  39 NW13      30.21S
CHATTANOOGA    FAIR      57  31  37 N16G23    30.20F
CORINTH        FAIR      55  30  38 NW9G16    30.29F
DALTON         FAIR      55  34  44 N15G21    30.20S
GADSDEN        FAIR      58  37  45 NW14      30.20F
GOLDEN TRNGL   FAIR      62  39  42 N12       30.25F
HALEYVILLE     FAIR      55  35  47 N10G20    30.26F
JACKSON TN     PTSUNNY   55  32  41 N15G21    30.34S
MEMPHIS        FAIR      55  31  39 NE16G26   30.34F
NASHVILLE      FAIR      53  31  42 N12G20    30.32R
OXFORD MS      FAIR      55  32  41 N9G18     30.31F
ROME           FAIR      61  35  37 N13       30.16S
SAVANNAH       SUNNY     55  32  41 N12       30.29F
SELMER         SUNNY     54  27  35 N13G18    30.29S
TUPELO         PTSUNNY   57  32  38 NW14      30.28S
TUSCALOOSA     FAIR      66  39  37 N10       30.20F
$$

...GULF COAST WEATHER...

CITY           SKY/WX    TMP DP  RH WIND       PRES   REMARKS
GULFPORT       FAIR      80  51  36 N8G21     30.11F
PASCAGOULA     FAIR      79  50  36 N9G17     30.11F
MOBILE         FAIR      78  47  33 NW12G22   30.13F
GULF SHORES    FAIR      80  53  40 W8G22     30.09F
PENSACOLA      FAIR      79  58  48 SW9       30.07
DESTIN         FAIR      77  64  64 SW12G17   30.06F
PANAMA CITY    FAIR      76  66  71 W13       30.07F
APPALACHICOLA  PTSUNNY   79  66  64 NW16      30.08F
$$





USA.gov is the U.S. government's official web portal to all federal, state and local government web resources and services.